| time (UTC) | temp C | wind direction | speed KPH | gust KPH | rain 1hr cm | rain 24hr cm | rain mn cm | humidity % | barometer mb |
| 20260510224703 | 9 | 334 | 1.6 | 3.2 | 0.00 | 0.00 | 0.00 | 96 | 1033.2 |
| 20260510223204 | 9 | 15 | 3.2 | 3.2 | 0.00 | 0.00 | 0.00 | 96 | 1033.6 |
| 20260510221704 | 9 | 354 | 0.0 | 1.6 | 0.00 | 0.00 | 0.00 | 96 | 1033.6 |
| 20260510220203 | 9 | 335 | 0.0 | 1.6 | 0.00 | 0.00 | 0.00 | 96 | 1033.2 |
| 20260510214703 | 8 | 343 | 0.0 | 0.0 | 0.00 | 0.00 | 0.00 | 96 | 1033.2 |
| 20260510213203 | 8 | 329 | 0.0 | 1.6 | 0.00 | 0.00 | 0.00 | 96 | 1032.9 |
| 20260510211704 | 8 | 330 | 0.0 | 0.0 | 0.00 | 0.00 | 0.00 | 96 | 1032.9 |
| 20260510210203 | 8 | 5 | 1.6 | 1.6 | 0.00 | 0.00 | 0.00 | 96 | 1032.5 |
| 20260510204703 | 7 | 22 | 1.6 | 1.6 | 0.00 | 0.00 | 0.00 | 95 | 1032.5 |
| 20260510203204 | 7 | 336 | 0.0 | 0.0 | 0.00 | 0.00 | 0.00 | 95 | 1032.5 |
| 20260510201704 | 7 | 324 | 0.0 | 0.0 | 0.00 | 0.00 | 0.00 | 95 | 1032.5 |
| 20260510200203 | 6 | 335 | 1.6 | 1.6 | 0.00 | 0.00 | 0.00 | 95 | 1032.2 |
| 20260510194703 | 6 | 322 | 0.0 | 0.0 | 0.00 | 0.00 | 0.00 | 95 | 1032.2 |
| 20260510193203 | 5 | 329 | 0.0 | 0.0 | 0.00 | 0.00 | 0.00 | 96 | 1032.2 |
| 20260510191703 | 5 | 323 | 0.0 | 0.0 | 0.00 | 0.00 | 0.00 | 95 | 1031.9 |
| 20260510190203 | 5 | 323 | 0.0 | 0.0 | 0.00 | 0.00 | 0.00 | 95 | 1031.9 |
| 20260510184703 | 5 | 322 | 0.0 | 0.0 | 0.00 | 0.00 | 0.00 | 95 | 1031.5 |
| 20260510183204 | 5 | 326 | 0.0 | 0.0 | 0.00 | 0.00 | 0.00 | 95 | 1031.5 |
| 20260510181704 | 4 | 323 | 0.0 | 0.0 | 0.00 | 0.00 | 0.00 | 95 | 1031.2 |
| 20260510180204 | 4 | 322 | 0.0 | 0.0 | 0.00 | 0.00 | 0.00 | 95 | 1031.2 |
| 20260510174704 | 4 | 324 | 0.0 | 0.0 | 0.00 | 0.00 | 0.00 | 95 | 1031.2 |
| 20260510173203 | 4 | 324 | 0.0 | 0.0 | 0.00 | 0.00 | 0.00 | 95 | 1030.8 |
| 20260510171703 | 5 | 321 | 0.0 | 0.0 | 0.00 | 0.00 | 0.00 | 95 | 1030.8 |
| 20260510170204 | 4 | 321 | 0.0 | 0.0 | 0.00 | 0.00 | 0.00 | 94 | 1031.2 |
| 20260510164704 | 5 | 321 | 0.0 | 0.0 | 0.00 | 0.00 | 0.00 | 94 | 1031.2 |
| 20260510163204 | 5 | 321 | 0.0 | 0.0 | 0.00 | 0.00 | 0.00 | 94 | 1031.2 |
| 20260510161704 | 5 | 321 | 0.0 | 0.0 | 0.00 | 0.00 | 0.00 | 94 | 1031.2 |
| 20260510160204 | 5 | 321 | 0.0 | 0.0 | 0.00 | 0.00 | 0.00 | 94 | 1031.2 |
| 20260510154704 | 5 | 325 | 0.0 | 0.0 | 0.00 | 0.00 | 0.00 | 94 | 1031.2 |
| 20260510153204 | 5 | 325 | 0.0 | 0.0 | 0.00 | 0.00 | 0.00 | 94 | 1031.5 |
| 20260510151704 | 5 | 323 | 0.0 | 0.0 | 0.00 | 0.00 | 0.00 | 94 | 1031.2 |
| 20260510150204 | 5 | 323 | 0.0 | 0.0 | 0.00 | 0.00 | 0.00 | 94 | 1031.2 |
| 20260510144704 | 6 | 323 | 0.0 | 0.0 | 0.00 | 0.00 | 0.00 | 94 | 1031.5 |
| 20260510143204 | 6 | 325 | 0.0 | 0.0 | 0.00 | 0.00 | 0.00 | 94 | 1031.2 |
| 20260510141703 | 6 | 325 | 0.0 | 0.0 | 0.00 | 0.00 | 0.00 | 94 | 1031.5 |
| 20260510140203 | 6 | 324 | 0.0 | 0.0 | 0.00 | 0.00 | 0.00 | 93 | 1031.5 |
| 20260510134704 | 7 | 324 | 0.0 | 0.0 | 0.00 | 0.00 | 0.00 | 93 | 1031.5 |
| 20260510133204 | 6 | 322 | 0.0 | 0.0 | 0.00 | 0.00 | 0.00 | 93 | 1031.5 |
| 20260510131704 | 7 | 323 | 0.0 | 0.0 | 0.00 | 0.00 | 0.00 | 93 | 1031.5 |
| 20260510130204 | 7 | 326 | 0.0 | 0.0 | 0.00 | 0.00 | 0.00 | 93 | 1031.5 |
| 20260510124704 | 7 | 321 | 0.0 | 0.0 | 0.00 | 0.00 | 0.00 | 92 | 1031.9 |
| 20260510123204 | 7 | 323 | 0.0 | 0.0 | 0.00 | 0.00 | 0.00 | 92 | 1031.9 |
| 20260510121704 | 7 | 323 | 0.0 | 0.0 | 0.00 | 0.00 | 0.00 | 92 | 1031.5 |
| 20260510120204 | 8 | 325 | 0.0 | 0.0 | 0.00 | 0.00 | 0.00 | 92 | 1031.9 |
| 20260510114704 | 8 | 325 | 0.0 | 0.0 | 0.00 | 0.00 | 0.00 | 91 | 1031.5 |
| 20260510113204 | 8 | 325 | 0.0 | 0.0 | 0.00 | 0.00 | 0.00 | 90 | 1031.5 |
| 20260510111704 | 8 | 323 | 0.0 | 0.0 | 0.00 | 0.00 | 0.00 | 90 | 1031.5 |
| 20260510110204 | 9 | 328 | 0.0 | 0.0 | 0.00 | 0.00 | 0.00 | 90 | 1031.2 |
| 20260510104704 | 9 | 328 | 0.0 | 0.0 | 0.00 | 0.00 | 0.00 | 89 | 1031.2 |
| 20260510103204 | 10 | 326 | 0.0 | 0.0 | 0.00 | 0.00 | 0.00 | 88 | 1031.2 |
| 20260510101704 | 10 | 329 | 0.0 | 0.0 | 0.00 | 0.00 | 0.00 | 88 | 1031.2 |
| 20260510100204 | 10 | 328 | 0.0 | 0.0 | 0.00 | 0.00 | 0.00 | 87 | 1031.2 |
| 20260510094704 | 11 | 333 | 0.0 | 0.0 | 0.00 | 0.00 | 0.00 | 86 | 1031.2 |
| 20260510093204 | 11 | 321 | 0.0 | 0.0 | 0.00 | 0.00 | 0.00 | 85 | 1030.8 |
| 20260510091703 | 11 | 337 | 0.0 | 0.0 | 0.00 | 0.00 | 0.00 | 84 | 1030.8 |
| 20260510090203 | 11 | 325 | 0.0 | 0.0 | 0.00 | 0.00 | 0.00 | 82 | 1030.8 |
| 20260510084704 | 12 | 327 | 0.0 | 0.0 | 0.00 | 0.00 | 0.00 | 80 | 1030.8 |
| 20260510083204 | 13 | 333 | 0.0 | 0.0 | 0.00 | 0.00 | 0.00 | 77 | 1030.5 |
| 20260510081704 | 15 | 342 | 0.0 | 0.0 | 0.00 | 0.00 | 0.00 | 75 | 1030.5 |
| 20260510080204 | 15 | 325 | 0.0 | 0.0 | 0.00 | 0.00 | 0.00 | 75 | 1030.5 |
| 20260510074704 | 15 | 310 | 0.0 | 1.6 | 0.00 | 0.00 | 0.00 | 75 | 1029.8 |
| 20260510073204 | 15 | 303 | 0.0 | 0.0 | 0.00 | 0.00 | 0.00 | 74 | 1029.8 |
| 20260510071703 | 15 | 301 | 0.0 | 0.0 | 0.00 | 0.00 | 0.00 | 72 | 1029.8 |
| 20260510070204 | 16 | 319 | 0.0 | 0.0 | 0.00 | 0.00 | 0.00 | 71 | 1029.8 |
| 20260510064704 | 16 | 310 | 0.0 | 1.6 | 0.00 | 0.00 | 0.00 | 69 | 1029.8 |
| 20260510063204 | 17 | 292 | 1.6 | 1.6 | 0.00 | 0.00 | 0.00 | 64 | 1029.5 |
| 20260510061705 | 17 | 30 | 1.6 | 1.6 | 0.00 | 0.00 | 0.00 | 60 | 1029.5 |
| 20260510060203 | 17 | 311 | 0.0 | 0.0 | 0.00 | 0.00 | 0.00 | 60 | 1029.5 |
| 20260510054704 | 16 | 312 | 0.0 | 0.0 | 0.00 | 0.00 | 0.00 | 63 | 1029.8 |
| 20260510053204 | 16 | 280 | 1.6 | 1.6 | 0.00 | 0.00 | 0.00 | 62 | 1029.5 |
| 20260510051704 | 17 | 61 | 6.4 | 6.4 | 0.00 | 0.00 | 0.00 | 59 | 1029.5 |
| 20260510050204 | 17 | 205 | 1.6 | 3.2 | 0.00 | 0.00 | 0.00 | 60 | 1029.5 |
| 20260510044704 | 17 | 289 | 1.6 | 3.2 | 0.00 | 0.00 | 0.00 | 58 | 1029.2 |
| 20260510043204 | 17 | 200 | 3.2 | 4.8 | 0.00 | 0.00 | 0.00 | 60 | 1029.5 |
| 20260510041703 | 17 | 174 | 4.8 | 4.8 | 0.00 | 0.00 | 0.00 | 57 | 1029.5 |
| 20260510040203 | 17 | 221 | 1.6 | 3.2 | 0.00 | 0.00 | 0.00 | 57 | 1029.8 |
| 20260510034704 | 17 | 306 | 1.6 | 1.6 | 0.00 | 0.00 | 0.00 | 58 | 1029.8 |
| 20260510033204 | 17 | 150 | 3.2 | 6.4 | 0.00 | 0.00 | 0.00 | 58 | 1029.8 |
| 20260510031704 | 17 | 242 | 1.6 | 3.2 | 0.00 | 0.00 | 0.00 | 61 | 1029.8 |
| 20260510030204 | 16 | 290 | 1.6 | 1.6 | 0.00 | 0.00 | 0.00 | 60 | 1029.8 |
| 20260510024704 | 17 | 297 | 1.6 | 3.2 | 0.00 | 0.00 | 0.00 | 60 | 1029.8 |
| 20260510023204 | 16 | 338 | 0.0 | 1.6 | 0.00 | 0.00 | 0.00 | 62 | 1030.2 |
| 20260510021704 | 16 | 324 | 0.0 | 1.6 | 0.00 | 0.00 | 0.00 | 64 | 1030.5 |
| 20260510020203 | 16 | 190 | 3.2 | 4.8 | 0.00 | 0.00 | 0.00 | 63 | 1030.5 |
| 20260510014704 | 16 | 322 | 0.0 | 0.0 | 0.00 | 0.00 | 0.00 | 62 | 1030.8 |
| 20260510013204 | 15 | 14 | 3.2 | 3.2 | 0.00 | 0.00 | 0.00 | 64 | 1031.2 |
| 20260510011704 | 15 | 323 | 0.0 | 0.0 | 0.00 | 0.00 | 0.00 | 65 | 1031.2 |
| 20260510010204 | 15 | 306 | 0.0 | 1.6 | 0.00 | 0.00 | 0.00 | 66 | 1031.2 |
| 20260510004703 | 15 | 285 | 0.0 | 1.6 | 0.00 | 0.00 | 0.00 | 66 | 1031.2 |
| 20260510003204 | 15 | 321 | 0.0 | 0.0 | 0.00 | 0.00 | 0.00 | 68 | 1031.2 |
| 20260510001704 | 15 | 252 | 3.2 | 3.2 | 0.00 | 0.00 | 0.00 | 70 | 1031.2 |
| 20260510000204 | 15 | 314 | 0.0 | 0.0 | 0.00 | 0.00 | 0.00 | 71 | 1031.2 |
| 20260509234704 | 15 | 300 | 0.0 | 1.6 | 0.00 | 0.00 | 0.00 | 77 | 1031.2 |
| 20260509233204 | 14 | 317 | 0.0 | 0.0 | 0.00 | 0.00 | 0.00 | 81 | 1030.8 |
| 20260509231704 | 14 | 327 | 0.0 | 0.0 | 0.00 | 0.00 | 0.00 | 84 | 1030.8 |
| 20260509230204 | 13 | 316 | 0.0 | 0.0 | 0.00 | 0.00 | 0.00 | 87 | 1030.8 |